TimeCDT,TemperatureF,Dew PointF,Humidity,Sea Level PressureIn,VisibilityMPH,Wind Direction,Wind SpeedMPH,Gust SpeedMPH,PrecipitationIn,Events,Conditions,WindDirDegrees,DateUTC
12:15 AM,68.5,65.3,89,30.09,10.0,SE,3.5,-,N/A,,Clear,130,2012-10-04 05:15:00
12:35 AM,68.0,65.5,92,30.09,10.0,ESE,4.6,-,N/A,,Clear,120,2012-10-04 05:35:00
12:55 AM,67.3,65.3,93,30.09,10.0,Calm,Calm,-,N/A,,Clear,0,2012-10-04 05:55:00
1:15 AM,66.9,64.8,93,30.09,10.0,ESE,4.6,-,N/A,,Clear,110,2012-10-04 06:15:00
1:35 AM,67.1,65.1,93,30.09,10.0,ESE,3.5,-,N/A,,Clear,120,2012-10-04 06:35:00
1:55 AM,67.1,65.7,95,30.10,10.0,ESE,4.6,-,N/A,,Clear,110,2012-10-04 06:55:00
2:15 AM,67.1,65.8,96,30.10,10.0,ESE,4.6,-,N/A,,Clear,110,2012-10-04 07:15:00
2:35 AM,67.1,66.2,97,30.10,10.0,East,5.8,-,N/A,,Clear,100,2012-10-04 07:35:00
2:55 AM,67.1,66.2,97,30.10,10.0,East,5.8,-,N/A,,Clear,100,2012-10-04 07:55:00
3:15 AM,67.1,66.4,98,30.10,7.0,East,4.6,-,N/A,,Clear,100,2012-10-04 08:15:00
3:35 AM,67.1,66.4,98,30.10,7.0,East,4.6,-,N/A,,Clear,90,2012-10-04 08:35:00
3:55 AM,66.2,65.7,98,30.10,7.0,East,3.5,-,N/A,,Scattered Clouds,90,2012-10-04 08:55:00
4:15 AM,66.7,66.2,98,30.11,10.0,East,5.8,-,N/A,,Clear,100,2012-10-04 09:15:00
4:35 AM,67.5,66.7,98,30.11,10.0,ESE,5.8,-,N/A,,Scattered Clouds,110,2012-10-04 09:35:00
4:55 AM,67.6,67.1,98,30.12,7.0,East,6.9,-,N/A,,Scattered Clouds,100,2012-10-04 09:55:00
5:15 AM,67.3,67.1,99,30.12,7.0,ESE,5.8,-,N/A,,Scattered Clouds,110,2012-10-04 10:15:00
5:35 AM,67.3,67.1,99,30.13,5.0,East,5.8,-,N/A,,Clear,100,2012-10-04 10:35:00
5:55 AM,67.3,67.1,99,30.13,5.0,ESE,5.8,-,N/A,,Clear,110,2012-10-04 10:55:00
6:15 AM,67.1,66.9,99,30.14,5.0,East,4.6,-,N/A,,Clear,90,2012-10-04 11:15:00
6:35 AM,66.6,66.4,99,30.14,4.0,East,5.8,-,N/A,,Clear,90,2012-10-04 11:35:00
6:55 AM,66.4,66.2,99,30.14,4.0,East,5.8,-,N/A,,Clear,90,2012-10-04 11:55:00
7:15 AM,66.4,66.2,99,30.14,2.5,East,5.8,-,N/A,,Clear,100,2012-10-04 12:15:00
7:35 AM,66.9,66.7,99,30.15,2.5,East,5.8,-,N/A,,Clear,100,2012-10-04 12:35:00
7:55 AM,68.0,67.5,98,30.15,4.0,ESE,6.9,-,N/A,,Clear,110,2012-10-04 12:55:00
8:15 AM,69.3,68.2,96,30.16,7.0,ESE,8.1,-,N/A,,Clear,110,2012-10-04 13:15:00
8:35 AM,71.1,68.9,93,30.17,10.0,ESE,8.1,-,N/A,,Clear,110,2012-10-04 13:35:00
8:55 AM,72.7,69.4,90,30.17,10.0,East,8.1,-,N/A,,Clear,100,2012-10-04 13:55:00
9:15 AM,74.3,70.2,87,30.18,10.0,ESE,6.9,-,N/A,,Clear,110,2012-10-04 14:15:00
9:35 AM,75.7,69.8,82,30.18,10.0,SE,9.2,-,N/A,,Clear,130,2012-10-04 14:35:00
9:55 AM,76.1,69.8,81,30.19,10.0,SE,10.4,-,N/A,,Clear,130,2012-10-04 14:55:00
10:15 AM,77.7,69.4,76,30.19,10.0,SE,11.5,-,N/A,,Clear,130,2012-10-04 15:15:00
10:35 AM,78.8,68.7,71,30.19,10.0,SE,8.1,-,N/A,,Scattered Clouds,140,2012-10-04 15:35:00
10:55 AM,79.3,68.5,69,30.19,10.0,SE,10.4,-,N/A,,Scattered Clouds,140,2012-10-04 15:55:00
11:15 AM,80.4,68.4,67,30.19,10.0,ESE,10.4,16.1,N/A,,Scattered Clouds,110,2012-10-04 16:15:00
11:35 AM,81.9,67.3,61,30.19,10.0,ESE,9.2,-,N/A,,Scattered Clouds,110,2012-10-04 16:35:00
11:55 AM,80.8,67.3,63,30.19,10.0,SE,5.8,-,N/A,,Mostly Cloudy,130,2012-10-04 16:55:00
12:15 PM,81.9,65.8,58,30.19,10.0,SE,5.8,-,N/A,,Mostly Cloudy,140,2012-10-04 17:15:00
12:35 PM,83.5,66.0,55,30.18,10.0,SE,6.9,-,N/A,,Mostly Cloudy,140,2012-10-04 17:35:00
12:55 PM,83.7,65.5,54,30.17,10.0,ESE,8.1,-,N/A,,Scattered Clouds,120,2012-10-04 17:55:00
1:35 PM,83.3,65.1,54,30.15,10.0,SE,9.2,-,N/A,,Scattered Clouds,130,2012-10-04 18:35:00
1:55 PM,82.9,64.9,54,30.15,10.0,ESE,6.9,-,N/A,,Scattered Clouds,110,2012-10-04 18:55:00
2:15 PM,84.0,64.4,52,30.14,10.0,SE,6.9,-,N/A,,Scattered Clouds,130,2012-10-04 19:15:00
2:35 PM,84.9,63.7,49,30.14,10.0,ESE,8.1,-,N/A,,Overcast,120,2012-10-04 19:35:00
2:55 PM,85.1,63.5,48,30.13,10.0,East,4.6,-,N/A,,Mostly Cloudy,100,2012-10-04 19:55:00
3:15 PM,85.5,63.1,47,30.13,10.0,South,3.5,-,N/A,,Scattered Clouds,170,2012-10-04 20:15:00
3:35 PM,84.6,62.8,48,30.13,10.0,SSW,3.5,-,N/A,,Scattered Clouds,200,2012-10-04 20:35:00
3:55 PM,85.3,61.2,44,30.12,10.0,SSE,4.6,-,N/A,,Scattered Clouds,150,2012-10-04 20:55:00
4:15 PM,85.3,62.6,46,30.12,10.0,South,4.6,-,N/A,,Scattered Clouds,170,2012-10-04 21:15:00
4:35 PM,84.9,62.6,47,30.12,10.0,SSE,4.6,-,N/A,,Scattered Clouds,150,2012-10-04 21:35:00
4:55 PM,85.1,63.9,49,30.12,10.0,South,5.8,-,N/A,,Mostly Cloudy,170,2012-10-04 21:55:00
5:15 PM,82.2,63.3,53,30.12,10.0,SSE,4.6,-,N/A,,Mostly Cloudy,160,2012-10-04 22:15:00
5:35 PM,83.3,63.7,51,30.12,10.0,SSE,3.5,-,N/A,,Scattered Clouds,160,2012-10-04 22:35:00
5:55 PM,82.4,64.9,55,30.13,10.0,SSW,4.6,-,N/A,,Clear,200,2012-10-04 22:55:00
6:15 PM,81.5,65.5,58,30.13,10.0,SSE,4.6,-,N/A,,Clear,160,2012-10-04 23:15:00
6:35 PM,80.1,65.5,61,30.13,10.0,Calm,Calm,-,N/A,,Clear,0,2012-10-04 23:35:00
6:55 PM,78.4,66.2,66,30.13,10.0,Calm,Calm,-,N/A,,Clear,0,2012-10-04 23:55:00
7:15 PM,77.0,66.7,70,30.13,10.0,Calm,Calm,-,N/A,,Clear,0,2012-10-05 00:15:00
7:35 PM,75.6,66.9,74,30.13,10.0,Calm,Calm,-,N/A,,Clear,0,2012-10-05 00:35:00
7:55 PM,74.8,66.4,75,30.13,10.0,Calm,Calm,-,N/A,,Clear,0,2012-10-05 00:55:00
8:15 PM,74.7,65.8,74,30.13,10.0,Calm,Calm,-,N/A,,Clear,0,2012-10-05 01:15:00
8:35 PM,72.7,66.9,82,30.14,10.0,SSW,3.5,-,N/A,,Clear,210,2012-10-05 01:35:00
8:55 PM,73.4,66.2,78,30.14,10.0,Calm,Calm,-,N/A,,Clear,0,2012-10-05 01:55:00
9:15 PM,73.4,66.2,78,30.14,10.0,Calm,Calm,-,N/A,,Clear,0,2012-10-05 02:15:00
9:35 PM,72.3,66.6,82,30.14,10.0,Calm,Calm,-,N/A,,Clear,0,2012-10-05 02:35:00
9:55 PM,70.3,66.7,88,30.14,10.0,Calm,Calm,-,N/A,,Clear,0,2012-10-05 02:55:00
10:15 PM,69.3,66.6,91,30.13,10.0,Calm,Calm,-,N/A,,Clear,0,2012-10-05 03:15:00
10:35 PM,69.1,66.6,92,30.13,10.0,Calm,Calm,-,N/A,,Clear,0,2012-10-05 03:35:00
10:55 PM,68.0,66.2,94,30.13,10.0,Calm,Calm,-,N/A,,Clear,0,2012-10-05 03:55:00
11:15 PM,70.0,66.4,88,30.13,10.0,Calm,Calm,-,N/A,,Clear,0,2012-10-05 04:15:00
11:35 PM,69.1,66.4,91,30.14,10.0,Calm,Calm,-,N/A,,Clear,0,2012-10-05 04:35:00
11:55 PM,68.5,66.7,94,30.14,10.0,Calm,Calm,-,N/A,,Clear,0,2012-10-05 04:55:00